Skip Page Navigation
NASA JPL Caltech
NASA Logo - Jet Propulsion Laboratory + View the NASA Portal
+ Center for Near-Earth Object Studies
JPL Home Earth Solar System Stars & Galaxies Technology
JPL Solar System Dynamics
BODIES ORBITS EPHEMERIDES TOOLS PHYSICAL DATA DISCOVERY FAQ SITE MAP
JPL Small-Body Database Browser
Search: [ help ]  
215913 (2005 JE34)
Classification: Main-belt Asteroid          SPK-ID: 2215913
Ephemeris | Orbit Diagram | Orbital Elements | Mission Design | Physical Parameters | Discovery Circumstances | Close-Approach Data ]

[ show orbit diagram ]
Orbital Elements at Epoch 2459200.5 (2020-Dec-17.0) TDB
Reference: JPL 19 (heliocentric ecliptic J2000)
 Element Value Uncertainty (1-sigma)   Units 
e .1571554583697094 5.4451e-08  
a 2.540119152768287 1.5433e-08 au
q 2.140925563001309 1.412e-07 au
i 4.757541353106457 4.8619e-06 deg
node 255.0649585031026 6.1264e-05 deg
peri 315.1546086956913 6.2506e-05 deg
M 320.4881634008012 1.5776e-05 deg
tp 2459362.794677382533
(2021-May-28.29467738)
6.5755e-05 TDB
period 1478.698255674013
4.05
1.3476e-05
3.69e-08
d
yr
n .2434573778785629 2.2188e-09 deg/d
Q 2.939312742535265 1.7859e-08 au
  Orbit Determination Parameters
   # obs. used (total)      328  
   data-arc span      7183 days (19.67 yr)  
   first obs. used      2001-05-15  
   last obs. used      2021-01-13  
   planetary ephem.      DE431  
   SB-pert. ephem.      SB431-N16  
   condition code      0  
   norm. resid. RMS      .54937  
   source      ORB  
   producer      Otto Matic  
   solution date      2021-Feb-24 12:47:03  

Additional Information
 Earth MOID = 1.13736 au 
 Jupiter MOID = 2.04698 au 
 T_jup = 3.424 
[ show covariance matrix ]

Ephemeris | Orbit Diagram | Orbital Elements | Mission Design | Physical Parameters | Discovery Circumstances | Close-Approach Data ]

Physical Parameter Table
Parameter Symbol Value Units Sigma Reference Notes
absolute magnitude H 16.3   n/a MPO454551  

215913 (2005 JE34)          Discovered 2005-May-04 by NEAT at Palomar
Reference: 20090607/Numbers.arcLast Updated: 2009-06-08

[ show close-approach data ]
Ephemeris | Orbit Diagram | Orbital Elements | Mission Design | Physical Parameters | Discovery Circumstances | Close-Approach Data ]
ABOUT SSD CREDITS/AWARDS PRIVACY/COPYRIGHT GLOSSARY LINKS
FirstGov 2021-Mar-03 01:03 UT
(server date/time)  
NASA Home Page
Site Manager:   Ryan S. Park
Webmaster  Alan B. Chamberlin